User: anonymous   Login
Location: Unnamed
(48.6007°N, 2.4808°E)
Time: 04:03:41
(UTC+02:00)
Language:

DOVE 4 - Orbit

View from above orbital plane
View from above orbital plane
View from above satellite
View from above satellite

Ground track
Ground track

The orbit data is extracted from the following two-line orbital elements,

1 39430U 13066Q   24106.78441879  .00004177  00000-0  70060-3 0  9991
2 39430  97.7413 344.9356 0142768  91.1451 270.6113 14.63644969553910
Epoch (UTC): 15 April 2024 18:49:33
Eccentricity: 0.0142768
inclination: 97.7413°
perigee height: 580 km
apogee height: 782 km
right ascension of ascending node: 344.9356°
argument of perigee: 91.1451°
revolutions per day: 14.63644969
mean anomaly at epoch: 270.6113°
orbit number at epoch: 55391

The dashed part of the orbit path shows where the satellite is in the earth's shadow,  

DLR